Location: Pontbriand
(46.1542°N, 71.2542°W)
Time: 15:58:56
(UTC+00:00)

Envisat - Pass Details

Date: 06 December 2021
Orbit: 764 x 766 km, 98.2° (Epoch: 16 January)

Event Time Altitude Azimuth Distance (km) Brightness Sun altitude
Rises 09:17:40 0° 19° (NNE) 3,244 6.4 -29.4°
Reaches altitude 10° 09:20:05 10° 26° (NNE) 2,312 5.7 -29.0°
Maximum altitude 09:24:57 44° 98° (E) 1,058 4.1 -28.2°
Drops below altitude 10° 09:29:46 10° 170° (S) 2,295 5.6 -27.3°
Sets 09:32:09 0° 177° (S) 3,216 6.3 -26.9°
